This is the latest recevied weather packets stored in our database for station/object KC4JIR. If no packets are shown the sender has not sent any weather packets the latest 10 day(s).
| Time | Temp. | Humidity | Pressure | Rain* | Wind** | Luminosity | Snow |
|---|---|---|---|---|---|---|---|
| 1777908900 | 22.22° C | 42% | 1016.3 hPa | 0 mm | - | 877 W/m² | - |
| 1777908597 | 22.22° C | 48% | 1016.3 hPa | 0 mm | - | 930 W/m² | - |
| 1777908294 | 22.22° C | 41% | 1016.4 hPa | 0 mm | - | 937 W/m² | - |
| 1777907990 | 22.22° C | 46% | 1016.5 hPa | 0 mm | - | 891 W/m² | - |
| 1777907686 | 21.67° C | 44% | 1016.4 hPa | 0 mm | - | 868 W/m² | - |
| 1777907381 | 21.11° C | 51% | 1016.3 hPa | 0 mm | - | 869 W/m² | - |
| 1777907078 | 21.11° C | 44% | 1016.7 hPa | 0 mm | - | 748 W/m² | - |
| 1777906776 | 21.11° C | 46% | 1016.6 hPa | 0 mm | - | 837 W/m² | - |
| 1777906472 | 21.11° C | 54% | 1016.6 hPa | 0 mm | - | 820 W/m² | - |
| 1777906169 | 21.11° C | 52% | 1016.6 hPa | 0 mm | - | 752 W/m² | - |
| 1777905866 | 20.56° C | 57% | 1016.7 hPa | 0 mm | - | 651 W/m² | - |
| 1777905563 | 20° C | 65% | 1016.6 hPa | 0 mm | - | 751 W/m² | - |
| 1777905260 | 19.44° C | 60% | 1016.5 hPa | 0 mm | - | 335 W/m² | - |
| 1777904957 | 18.89° C | 67% | 1016.7 hPa | 0 mm | - | 289 W/m² | - |
| 1777904654 | 18.89° C | 70% | 1016.5 hPa | 0 mm | - | 69 W/m² | - |
| 1777904351 | 18.33° C | 71% | 1016.8 hPa | 0 mm | - | 77 W/m² | - |
| 1777904048 | 17.22° C | 72% | 1016.5 hPa | 0 mm | - | 74 W/m² | - |
| 1777903744 | 17.22° C | 79% | 1016.8 hPa | 0 mm | - | 102 W/m² | - |
| 1777903440 | 16.67° C | 76% | 1016.7 hPa | 0 mm | - | 83 W/m² | - |
| 1777903137 | 16.67° C | 78% | 1016.9 hPa | 0 mm | - | 175 W/m² | - |
| 1777902833 | 16.11° C | 81% | 1016.6 hPa | 0 mm | - | 228 W/m² | - |
| 1777902531 | 15.56° C | 82% | 1016.6 hPa | 0 mm | - | 77 W/m² | - |
| 1777902228 | 15° C | 82% | 1016.6 hPa | 0 mm | - | 118 W/m² | - |
| 1777901926 | 14.44° C | 84% | 1016.3 hPa | 0 mm | - | 63 W/m² | - |
| 1777901623 | 13.89° C | 87% | 1016.5 hPa | 0 mm | - | 121 W/m² | - |
* Rain latest hour (hover to see other rain measurements)
** Current wind speed in m/s (hover to see current wind gust speed)